Inquirer Daily News

Weather

Get conditions and forecasts for any City, State, ZIP code or Country:  
Northeast Philadelphia, PA
on Thursday, November 15, 2012

Thursday
Previous Day Next Day
Daily Summary
 ActualAverage (KTTN)Record (KTTN)
Temperature
Mean Temperature °F 46°F  
Max Temperature 46°F 55°F 78°F (1993)
Min Temperature 32°F 37°F 19°F (1996)
Degree Days
Heating Degree Days 26 19  
Month to date heating degree days 254  
Since 1 July heating degree days 651  
Cooling Degree Days 0 0  
Month to date cooling degree days 0  
Year to date cooling degree days 965  
Moisture
Dew Point 27°F   
Average Humidity 63    
Maximum Humidity 79    
Minimum Humidity 48    
Precipitation
Precipitation 0.00 in 0.10 in 1.70 in (1983)
Month to date precipitation 1.55  
Year to date precipitation 40.98  
Wind
Wind Speed 6 mph   
Max Wind Speed 10 mph   
Max Gust Speed mph   
Visibility 10 miles   
Events     

Key: T is trace of precipitation, MM is missing value
Source: NWS Daily Summary
Time(EST)TemperatureDew PointHumidity Pressure Visibility Wind DirectionWind SpeedGust SpeedPrecipitationEvents Conditions
12:54 AM 34.0°F 24.1°F 67% 30.44 in 10.0 miles NNE 8.1 mph - N/A   Clear
1:54 AM 34.0°F 24.1°F 67% 30.45 in 10.0 miles NNE 8.1 mph - N/A   Clear
2:54 AM 34.0°F 24.1°F 67% 30.44 in 10.0 miles NNE 6.9 mph - N/A   Clear
3:54 AM 34.0°F 24.1°F 67% 30.44 in 10.0 miles NNE 4.6 mph - N/A   Clear
4:54 AM 32.0°F 24.1°F 73% 30.44 in 10.0 miles NE 8.1 mph - N/A   Overcast
5:54 AM 33.1°F 24.1°F 70% 30.44 in 10.0 miles NE 8.1 mph - N/A   Overcast
6:54 AM 33.1°F 24.1°F 70% 30.45 in 10.0 miles NE 8.1 mph - N/A   Clear
7:54 AM 35.1°F 25.0°F 67% 30.45 in 10.0 miles NE 8.1 mph - N/A   Clear
8:54 AM 37.9°F 25.0°F 60% 30.45 in 10.0 miles NE 5.8 mph - N/A   Clear
9:54 AM 41.0°F 27.0°F 57% 30.46 in 10.0 miles NE 4.6 mph - N/A   Clear
10:54 AM 43.0°F 28.9°F 58% 30.43 in 10.0 miles NE 4.6 mph - N/A   Clear
11:54 AM 46.0°F 30.0°F 54% 30.40 in 10.0 miles NNE 10.4 mph - N/A   Clear
12:54 PM 46.0°F 28.9°F 51% 30.38 in 10.0 miles Calm Calm - N/A   Clear
1:54 PM 46.9°F 28.9°F 50% 30.38 in 10.0 miles Calm Calm - N/A   Clear
2:54 PM 46.9°F 28.0°F 48% 30.36 in 10.0 miles Calm Calm - N/A   Clear
3:54 PM 45.0°F 28.0°F 52% 30.36 in 10.0 miles NNE 4.6 mph - N/A   Clear
4:54 PM 42.1°F 28.0°F 58% 30.35 in 10.0 miles NE 4.6 mph - N/A   Clear
5:54 PM 41.0°F 27.0°F 57% 30.36 in 10.0 miles NE 3.5 mph - N/A   Clear
6:54 PM 39.9°F 28.0°F 63% 30.35 in 10.0 miles ENE 3.5 mph - N/A   Clear
7:54 PM 37.9°F 28.0°F 68% 30.35 in 10.0 miles NNE 3.5 mph - N/A   Clear
8:54 PM 36.0°F 28.0°F 73% 30.34 in 10.0 miles NNE 3.5 mph - N/A   Clear
9:54 PM 37.0°F 28.0°F 70% 30.34 in 10.0 miles NE 3.5 mph - N/A   Clear
10:54 PM 36.0°F 30.0°F 79% 30.33 in 10.0 miles Calm Calm - N/A   Clear
11:54 PM 37.0°F 30.0°F 76% 30.32 in 10.0 miles NNE 4.6 mph - N/A   Clear
Astronomy
Sunrise:06:45 AM (EST) Moon Rise:08:39 AM (EST)11/15
Sunset:04:43 PM (EST) Moon Set:06:31 PM (EST)11/15
Moon Phase
Nov. 15 Nov. 20 Nov. 28 Dec. 06 Dec. 13

Copyright © 2014 The Weather Underground, Inc.